sat.trackr.live / text

‹ back to catalog

STARLINK-30931

NORAD 58413 · 2023-180M

PAYLOAD ACTIVE UNKNOWN

§ Identity

Operator
Country
US
Launch date
2023-11-22
Launch site
AFETR
Launch vehicle
Mass (kg)
RCS (m²)

Purposes: comms

External: N2YO · Heavens-Above · Gunter

§ Orbital elements

Epoch: 2026-09-19T16:01:08.264928Z

Period
94.27 min
Inclination
43.0059°
Eccentricity
0.0001463
Mean motion
15.27577650 rev/d
Perigee alt
482.1 km
Apogee alt
484.1 km
Semi-major
6,861.2 km
B*
1.7676e-5
RAAN
25.8099°
Arg perigee
273.5229°
Mean anomaly
86.5455°
Rev number
15,742

§ Raw data

STARLINK-309311 58413U 23180M   26262.66745677  .00000224  00000+0  17676-4 0  99992 58413  43.0059  25.8099 0001463 273.5229  86.5455 15.27577650157428

JSON: /api/v1/satellites/58413 · /tle

For live sub-satellite position, see the globe view (requires WebGL).

§ Visibility from observer

Set your observer location to see the next 7 days of passes ≥ 10°. The values pass through the URL so the page stays shareable.

No JS? Fill the form by hand. The geolocation button needs JavaScript.